Theta_e
313 313 313 313 314 313 312 312 311 311 311 311 312 313 313 313 312 315 316 316 315 310 310 314 313 311 311 314 315 315 315 315 316 315 316 316 315 317 317 316 317 319 322 323 334
314 314 314 314 313 313 313 313 313 313 313 314 313 312 311 311 313 315 315 314 311 309 313 312 313 311 312 313 314 314 314 315 316 315 315 315 315 315 314 315 315 316 317 319 332
314 314 313 313 313 313 313 313 313 312 312 312 311 311 310 311 316 317 316 317 312 309 312 312 311 312 312 313 314 314 315 315 315 314 314 314 314 315 315 315 316 316 317 321 322
313 313 313 313 313 312 312 311 311 311 311 311 310 310 310 314 321 316 312 313 313 314 312 311 312 312 312 311 314 313 314 314 314 313 315 315 316 316 316 316 316 316 317 321 321
312 312 312 312 312 312 311 310 310 310 310 309 309 309 312 317 317 316 314 309 315 314 312 312 312 312 313 313 312 312 313 314 314 316 316 317 317 317 317 317 317 317 318 320 321
312 312 311 312 311 310 310 310 309 309 309 309 309 309 313 318 315 314 319 317 315 313 312 311 312 312 313 315 314 315 314 317 317 318 317 317 318 317 319 319 317 319 319 321 322
311 312 312 311 312 311 310 310 309 308 309 310 310 310 313 318 316 320 319 318 315 313 313 311 311 312 316 316 317 317 317 317 318 318 318 319 319 319 319 319 320 320 320 322 324
311 311 311 310 310 311 311 309 309 309 311 311 309 311 317 315 314 316 320 318 316 314 313 312 311 312 316 317 316 317 318 319 319 318 318 318 319 320 320 320 320 321 321 322 324
310 311 311 310 311 311 310 309 309 311 311 310 312 313 320 313 314 314 317 318 316 314 313 312 312 313 315 317 318 318 319 318 319 318 318 319 320 320 320 320 320 321 321 322 323
310 311 310 311 311 310 309 308 310 312 312 312 312 314 317 317 316 316 315 317 316 316 315 313 313 313 316 317 318 318 318 318 318 319 319 319 320 320 320 320 320 320 321 322 322
311 311 310 310 310 310 308 312 316 317 313 320 321 319 317 318 319 317 316 317 316 316 315 314 315 316 316 318 318 318 318 318 318 319 319 320 321 321 321 321 321 321 321 322 322
310 310 310 310 308 307 309 315 316 315 319 319 318 319 318 318 321 320 317 318 318 318 315 317 317 316 317 317 318 318 318 318 317 318 319 320 321 321 321 322 324 323 322 322 323
309 309 310 309 308 310 312 312 310 313 320 319 319 319 319 318 320 321 318 319 319 318 318 318 316 316 317 318 318 317 318 317 317 319 319 321 322 321 321 323 325 325 324 325 323
308 308 308 309 309 310 309 310 312 313 322 319 319 321 319 319 320 320 318 318 319 319 319 318 317 317 318 317 317 318 316 317 317 319 321 321 321 322 321 322 326 327 327 326 328
306 307 308 308 309 310 310 311 311 315 320 321 322 320 321 320 321 320 318 317 317 317 318 318 317 317 318 317 317 317 317 319 320 321 321 322 321 321 322 322 327 327 327 329 328
305 305 307 308 309 308 308 309 310 322 321 321 323 322 321 321 321 321 319 317 317 317 317 317 318 318 317 317 318 318 320 321 321 321 323 321 321 320 322 323 327 326 325 324 324
304 305 307 309 309 308 310 311 320 320 317 322 325 323 322 322 321 320 320 319 319 319 319 317 318 318 318 319 319 320 322 323 322 322 322 321 322 321 325 324 326 326 324 323 323
305 306 308 309 309 309 309 316 322 314 317 326 324 324 324 322 322 321 321 320 319 318 319 320 320 318 318 319 320 321 322 322 324 322 320 323 322 322 325 324 326 324 323 322 321
305 308 308 309 309 309 311 316 318 316 317 318 324 324 325 323 322 321 322 322 320 319 321 321 320 318 319 319 320 321 323 321 324 325 326 325 325 325 324 325 324 323 322 321 320
306 308 308 310 309 309 312 310 312 315 319 322 323 323 325 325 324 323 322 321 321 320 320 321 323 320 320 321 323 323 322 324 323 327 330 324 324 325 326 326 324 323 322 320 318
308 310 311 310 309 312 313 309 310 310 318 320 319 322 324 324 324 322 322 322 320 320 320 321 323 324 324 323 322 323 323 323 324 328 329 328 326 324 325 326 325 323 321 320 318
307 312 310 310 316 316 316 312 311 314 316 316 320 320 323 323 324 324 325 323 321 321 321 321 323 325 323 323 323 323 323 324 329 327 326 326 325 321 324 325 324 322 319 318 316
309 309 309 310 315 317 316 316 314 316 318 318 318 319 320 323 325 325 325 323 322 323 322 322 324 327 328 324 323 323 323 324 325 326 328 331 325 321 321 322 322 320 318 316 316
309 311 311 312 315 315 315 317 318 317 318 317 319 321 322 323 323 325 325 321 322 323 323 324 325 327 329 326 325 326 324 324 326 330 326 323 323 323 322 321 320 319 317 316 316
308 311 310 311 313 313 314 316 316 316 317 319 321 321 322 324 322 324 324 322 322 322 322 325 328 327 326 323 322 323 323 323 324 323 324 322 326 324 323 322 321 320 318 317 316
309 310 311 313 311 313 313 315 317 316 317 318 321 320 322 324 323 322 321 322 323 322 323 323 325 325 325 323 322 322 321 320 321 321 320 322 321 320 320 322 321 320 318 316 316
306 308 307 310 311 311 313 314 313 310 316 315 318 321 322 319 318 319 319 319 321 322 323 324 324 324 323 321 319 320 319 319 320 320 320 322 320 320 321 320 321 319 316 315 313
Wind_Speed
16 15 16 16 17 17 17 16 16 16 16 16 16 16 18 19 21 15 15 10 9 13 12 15 15 14 13 9 7 6 8 13 17 11 11 4 7 4 2 7 6 9 8 6 5
17 17 17 17 18 17 17 17 17 17 17 17 18 18 19 20 22 26 23 20 17 17 16 20 16 18 13 13 8 12 11 14 8 7 8 4 6 6 5 9 11 10 14 14 5
17 17 18 18 20 19 17 17 17 16 15 16 17 18 17 17 12 5 3 8 18 23 18 16 17 15 13 11 12 13 14 11 8 9 7 10 8 5 10 12 12 14 13 10 6
19 19 18 19 20 19 19 18 18 18 18 17 16 16 12 7 6 4 4 3 21 21 18 17 16 16 15 13 14 10 16 10 8 4 8 9 6 8 9 12 11 13 14 10 11
20 20 20 21 20 19 19 19 19 19 19 19 19 14 5 8 16 12 10 12 18 20 23 17 16 15 14 15 11 17 12 10 11 9 9 8 11 10 12 11 13 11 11 13 12
20 20 20 20 19 18 19 20 20 21 23 19 14 9 8 11 3 6 7 15 17 21 19 16 11 11 10 10 15 8 15 11 9 11 8 10 9 4 12 14 12 12 13 13 12
20 21 21 21 20 21 23 23 25 26 21 14 11 10 9 14 2 5 11 15 14 18 14 15 3 11 6 9 9 8 12 15 15 14 9 10 12 11 10 5 8 10 12 10 10
21 21 20 21 22 23 24 25 24 21 10 8 10 10 8 7 11 11 12 11 13 11 7 10 8 13 8 3 7 12 13 14 16 11 8 11 5 7 3 8 10 10 11 10 9
21 22 23 23 25 25 27 26 28 4 3 9 9 8 6 5 10 20 19 12 15 13 6 7 12 11 11 12 11 11 12 15 12 10 8 12 4 5 7 5 8 9 10 12 12
22 23 23 26 26 27 26 22 2 3 6 6 3 5 9 6 8 13 21 16 15 15 11 10 10 11 13 14 14 13 14 10 10 10 10 11 13 10 6 6 9 10 12 11 12
23 23 25 27 27 26 27 5 4 6 11 11 6 7 5 5 11 12 24 22 14 19 15 17 15 18 19 17 16 7 8 10 7 4 8 11 7 9 2 6 8 9 12 12 10
25 26 26 27 29 30 9 5 8 7 13 21 25 22 21 3 9 14 26 17 20 20 19 13 19 18 14 13 13 13 13 13 11 10 11 10 10 7 4 2 2 4 9 13 8
24 25 26 27 32 6 6 15 12 9 8 14 17 17 17 21 15 21 26 22 20 22 22 17 12 17 15 15 15 15 15 11 11 6 11 9 13 12 10 6 4 4 3 4 7
24 24 25 28 13 12 19 4 8 7 7 8 8 8 15 16 13 19 32 25 15 22 19 19 11 10 19 19 17 17 13 15 13 12 13 15 12 16 10 8 4 6 6 9 11
24 23 22 20 17 10 8 4 9 4 7 10 8 11 16 18 14 20 30 24 18 17 18 17 19 20 17 14 15 18 15 13 13 15 14 12 9 4 10 10 7 8 9 10 11
24 21 23 17 12 19 17 16 10 7 11 8 10 14 17 21 14 22 21 20 18 17 17 20 10 12 19 18 13 13 10 8 9 11 13 17 11 12 12 12 9 9 9 10 11
22 21 25 20 9 5 2 4 7 12 3 12 10 16 21 17 17 20 22 22 14 17 17 18 18 11 7 13 14 13 13 9 10 10 11 12 8 14 9 8 10 11 12 12 11
24 29 24 21 12 16 8 8 16 6 21 5 12 17 20 19 19 20 22 21 22 18 12 15 16 21 16 17 14 17 17 10 9 9 12 10 9 4 7 4 12 12 12 11 10
30 20 19 12 9 16 10 12 20 16 9 12 9 13 19 18 14 20 20 22 22 19 10 12 11 13 18 15 17 12 13 9 8 5 8 8 5 7 8 9 12 13 12 10 9
21 18 13 3 11 19 10 24 21 25 11 11 15 15 17 21 17 23 19 19 21 22 16 8 10 11 11 10 7 9 9 8 8 9 12 10 12 6 13 15 15 14 13 10 9
9 6 5 7 16 7 11 16 21 28 12 9 11 16 8 16 19 15 15 5 17 19 19 13 10 10 10 14 16 9 12 10 8 8 6 11 5 11 11 17 17 15 12 10 7
5 5 5 12 6 6 10 14 13 15 12 21 19 16 11 10 13 18 14 9 5 5 18 20 11 11 18 6 4 10 11 13 8 12 8 10 8 2 1 10 13 13 10 8 5
4 8 1 11 6 9 13 14 19 17 17 14 15 15 11 12 10 2 8 3 5 5 4 11 10 11 6 9 8 13 12 11 10 10 11 9 3 6 6 9 11 12 10 8 4
4 4 3 4 9 11 8 9 12 15 20 24 12 3 8 14 10 13 8 5 7 8 9 4 9 17 11 1 7 17 14 15 14 10 12 13 8 8 11 13 14 13 10 7 6
3 5 5 6 8 8 7 11 12 4 9 6 6 14 6 11 12 11 16 15 17 12 9 6 9 10 3 2 1 5 8 12 14 14 14 11 6 11 12 13 14 11 9 8 4
4 4 5 12 15 14 8 9 10 7 5 9 11 11 12 6 1 10 11 11 8 11 11 7 7 9 11 12 10 11 10 12 13 12 8 11 15 10 2 5 12 10 6 3 3
5 7 2 9 10 11 7 4 1 7 5 6 17 10 11 5 4 8 6 5 2 6 7 7 7 7 11 8 7 11 15 16 16 15 14 15 11 4 5 8 9 9 4 2 2
Wind_Direction
344 343 338 336 331 327 326 322 320 320 320 319 321 321 320 317 315 288 256 238 215 205 156 158 175 183 188 189 210 235 236 238 236 237 248 142 230 161 309 259 248 274 278 317 327
337 336 333 331 328 324 320 317 316 319 319 317 321 323 320 319 309 276 256 242 231 192 187 169 178 180 193 199 193 214 226 243 277 256 254 240 240 274 246 249 241 243 251 259 254
332 331 331 327 325 325 322 319 316 313 309 308 314 319 321 327 292 248 208 229 212 190 202 191 171 187 197 191 194 211 240 242 242 255 267 275 264 237 243 248 252 250 243 205 238
330 330 329 326 324 325 323 320 314 309 304 302 303 308 311 309 277 71 345 272 177 176 188 187 179 191 209 205 201 234 234 252 265 236 243 251 278 251 243 260 261 250 230 240 251
329 329 328 325 324 323 320 317 312 307 302 299 297 297 291 229 250 292 299 151 161 178 187 188 191 198 210 212 200 230 247 237 238 242 246 263 263 278 266 252 246 241 222 240 242
326 325 323 321 320 318 314 312 310 306 302 290 277 260 237 240 258 235 189 169 177 186 194 200 208 206 224 219 212 192 238 239 239 241 222 238 253 254 256 235 220 222 233 235 239
324 323 323 321 321 320 320 315 314 314 307 292 241 199 236 246 189 181 186 187 194 193 191 204 233 191 185 197 211 243 244 235 231 230 222 228 245 232 259 189 217 224 227 223 226
322 321 321 324 324 320 317 314 312 310 297 281 192 191 253 229 228 221 177 183 189 192 202 196 212 229 243 88 196 228 231 245 204 185 177 213 216 170 97 209 228 215 208 203 197
324 322 323 324 324 321 318 314 313 293 337 151 155 223 259 186 216 209 193 177 177 187 183 182 202 217 198 221 210 208 237 212 163 196 155 214 239 218 203 245 244 232 221 223 217
324 322 324 325 322 322 320 327 255 132 152 177 274 233 237 211 171 181 187 190 166 175 176 185 192 205 218 215 215 209 225 219 237 158 210 219 242 252 222 234 243 240 237 220 226
326 324 323 323 321 323 325 293 192 184 215 220 202 262 138 150 150 176 171 172 178 180 191 193 202 207 204 216 245 259 236 245 229 193 254 245 275 250 208 231 240 246 243 234 228
327 326 325 323 321 321 299 248 343 339 289 237 247 239 250 199 195 160 172 178 181 192 202 179 219 206 221 215 229 232 238 240 249 244 227 242 250 229 219 165 356 316 235 211 190
323 324 325 325 324 321 280 282 298 307 268 284 231 228 216 212 218 174 189 201 195 201 193 209 208 210 203 210 219 230 242 244 252 166 226 255 244 216 179 175 110 91 134 145 134
320 322 325 328 311 324 294 254 339 246 272 221 204 221 187 189 210 204 192 193 200 209 201 225 185 207 203 222 214 234 219 250 251 226 229 195 249 185 187 170 119 99 103 107 110
319 320 322 325 296 293 333 328 321 233 276 126 151 150 162 186 148 180 190 194 206 205 206 210 213 209 211 207 216 237 233 227 243 233 248 193 242 179 164 188 146 115 101 100 102
314 315 314 311 261 268 286 285 292 229 234 193 155 181 170 211 190 154 183 206 220 223 212 234 197 223 226 222 217 219 201 213 219 221 226 232 212 231 181 197 150 134 121 121 116
311 306 297 276 258 280 261 209 218 233 174 190 189 182 189 182 179 175 182 194 190 200 206 213 217 205 211 192 189 210 213 203 203 209 232 211 195 251 94 135 166 150 134 129 128
313 306 288 262 247 237 250 229 239 270 230 42 202 191 200 185 197 190 188 197 213 205 191 204 203 206 201 220 201 202 215 235 229 222 216 155 216 210 95 204 137 143 134 130 127
321 312 284 259 231 185 191 217 234 260 291 259 225 209 206 199 203 196 207 206 201 205 226 197 224 181 202 201 225 206 225 258 254 230 261 197 153 150 146 146 154 154 152 139 128
323 307 285 294 172 162 204 230 232 254 295 289 266 210 226 205 206 195 194 207 205 203 222 195 176 188 170 201 202 204 243 202 225 239 241 247 226 230 179 177 175 169 164 152 147
295 307 73 152 155 201 229 224 231 252 265 265 271 270 264 262 201 211 208 128 214 200 210 219 243 163 174 202 193 176 212 225 240 221 247 261 262 2 190 181 179 178 166 162 153
294 285 61 165 226 212 237 237 267 235 241 251 246 267 266 248 227 190 202 190 13 275 209 210 213 197 199 131 305 252 227 217 215 231 250 276 273 47 254 167 181 171 173 163 155
277 277 229 190 262 277 288 289 246 246 254 240 249 240 227 223 215 217 200 139 50 338 242 164 219 199 222 199 201 225 220 246 245 266 258 243 229 138 132 163 181 179 178 175 179
289 294 166 192 267 295 300 289 287 271 245 250 257 285 218 215 216 177 157 112 164 238 262 241 220 220 223 133 220 209 225 215 225 235 243 242 209 164 171 185 184 189 186 189 187
238 258 319 288 293 281 275 286 284 321 293 278 247 215 165 255 202 184 170 159 191 178 184 204 240 218 205 208 192 252 208 209 228 235 248 264 231 284 186 201 192 190 190 191 199
286 319 328 296 292 303 298 308 339 342 223 298 281 210 178 202 232 177 165 174 174 177 174 192 209 196 179 205 230 246 240 244 242 246 269 265 266 273 233 216 187 200 210 228 215
254 284 244 274 295 295 315 319 5 331 220 190 284 161 183 154 76 316 24 7 152 184 176 186 180 201 236 164 250 249 241 244 246 228 236 246 259 132 185 217 191 191 205 208 322